This is the latest recevied weather packets stored in our database for station/object K1KOF. If no packets are shown the sender has not sent any weather packets the latest 10 day(s).
| Time | Temp. | Humidity | Pressure | Rain* | Wind** | Luminosity | Snow |
|---|---|---|---|---|---|---|---|
| 1777636107 | 14.44° C | 63% | 1024 hPa | 0 mm | - | 38 W/m² | - |
| 1777635802 | 14.44° C | 63% | 1023.8 hPa | 0 mm | - | 34 W/m² | - |
| 1777635499 | 14.44° C | 63% | 1023.6 hPa | 0 mm | - | 35 W/m² | - |
| 1777635196 | 14.44° C | 62% | 1023.9 hPa | 0 mm | - | 31 W/m² | - |
| 1777634892 | 14.44° C | 63% | 1023.8 hPa | 0 mm | - | 28 W/m² | - |
| 1777634589 | 14.44° C | 63% | 1023.6 hPa | 0 mm | - | 26 W/m² | - |
| 1777634286 | 14.44° C | 62% | 1023.6 hPa | 0 mm | - | 22 W/m² | - |
| 1777633983 | 14.44° C | 61% | 1023.6 hPa | 0 mm | - | 11 W/m² | - |
| 1777633679 | 14.44° C | 61% | 1023.4 hPa | 0 mm | - | 6 W/m² | - |
| 1777633378 | 15° C | 61% | 1023.4 hPa | 0 mm | - | 5 W/m² | - |
| 1777633075 | 15° C | 61% | 1023.4 hPa | 0 mm | - | 1 W/m² | - |
| 1777632771 | 15° C | 60% | 1023.5 hPa | 0 mm | - | 0 W/m² | - |
| 1777632467 | 15° C | 60% | 1023.6 hPa | 0 mm | - | 0 W/m² | - |
| 1777632165 | 15° C | 60% | 1023.4 hPa | 0 mm | - | 0 W/m² | - |
| 1777631862 | 15° C | 60% | 1023.5 hPa | 0 mm | - | 0 W/m² | - |
| 1777631561 | 15° C | 58% | 1023.4 hPa | 0 mm | - | 0 W/m² | - |
| 1777631257 | 15° C | 59% | 1023.3 hPa | 0 mm | - | 0 W/m² | - |
| 1777630954 | 15° C | 61% | 1023.2 hPa | 0 mm | - | 0 W/m² | - |
| 1777630650 | 15.56° C | 60% | 1023.1 hPa | 0 mm | - | 0 W/m² | - |
| 1777630347 | 15.56° C | 59% | 1023.4 hPa | 0 mm | - | 0 W/m² | - |
| 1777630045 | 15.56° C | 57% | 1023.3 hPa | 0 mm | - | 0 W/m² | - |
| 1777629742 | 15.56° C | 60% | 1023 hPa | 0 mm | - | 0 W/m² | - |
| 1777629439 | 15.56° C | 57% | 1022.9 hPa | 0 mm | - | 0 W/m² | - |
| 1777629135 | 15.56° C | 59% | 1023.1 hPa | 0 mm | - | 0 W/m² | - |
| 1777628831 | 15.56° C | 58% | 1023.2 hPa | 0 mm | - | 0 W/m² | - |
* Rain latest hour (hover to see other rain measurements)
** Current wind speed in m/s (hover to see current wind gust speed)